Voltar ao catálogo

DMSP 5D-2 F13 DEB

LostSSO
NORAD 42331·DEBRIS·🇺🇸 United States

Lançado Mar 24, 1995 de Vandenberg Space Force Base

Loading…

Próximas Passagens (próximas 24 horas)

TLE

ObsoletoSource: Space-Track

Época: Nov 30, 2023, 01:31 UTC

1 42331U 95015JZ  23334.06372258  .00016438  00000-0  55605-2 0  9996
2 42331  98.6886   3.7901 0004633  60.0185 300.1461 14.36877933418151

Acompanhe DMSP 5D-2 F13 DEB em tempo real com AllMySat

Download on the App Store